QPF
0.01 0.00 0.00 0.01 0.01 0.01 0.01 0.01 0.03 0.02 0.01 0.01 0.01 0.01 0.00 0.00 0.00 0.00 0.00 0.00 0.02 0.16 0.15 0.04 0.01 0.00 0.00 0.00 0.00 0.00 0.00 0.00 0.00 0.00 0.00 0.00 0.00 0.00 0.00 0.00 0.00 0.00 0.00 0.00 0.00 0.00 0.00
0.01 0.01 0.01 0.01 0.00 0.00 0.00 0.01 0.01 0.01 0.01 0.02 0.01 0.01 0.01 0.01 0.00 0.00 0.00 0.00 0.00 0.06 0.08 0.07 0.01 0.00 0.00 0.00 0.00 0.00 0.00 0.00 0.00 0.00 0.00 0.00 0.00 0.00 0.00 0.00 0.00 0.00 0.00 0.00 0.00 0.00 0.00
0.01 0.02 0.01 0.01 0.01 0.00 0.00 0.00 0.00 0.00 0.01 0.02 0.03 0.03 0.04 0.01 0.00 0.00 0.00 0.00 0.01 0.09 0.08 0.06 0.03 0.02 0.02 0.00 0.00 0.00 0.00 0.00 0.00 0.00 0.00 0.00 0.00 0.00 0.00 0.00 0.00 0.00 0.00 0.00 0.00 0.00 0.00
0.03 0.03 0.03 0.03 0.02 0.03 0.01 0.00 0.00 0.01 0.03 0.04 0.06 0.04 0.03 0.02 0.01 0.00 0.00 0.00 0.04 0.06 0.14 0.23 0.13 0.03 0.05 0.02 0.00 0.00 0.00 0.00 0.00 0.00 0.00 0.00 0.00 0.00 0.00 0.00 0.00 0.00 0.00 0.00 0.00 0.00 0.00
0.04 0.04 0.06 0.08 0.17 0.10 0.02 0.01 0.01 0.04 0.06 0.06 0.10 0.07 0.05 0.04 0.03 0.00 0.04 0.22 0.05 0.11 0.04 0.13 0.09 0.03 0.00 0.00 0.00 0.00 0.00 0.00 0.00 0.00 0.00 0.00 0.00 0.00 0.00 0.00 0.00 0.00 0.00 0.00 0.00 0.00 0.00
0.05 0.12 0.16 0.20 0.20 0.04 0.03 0.01 0.03 0.05 0.10 0.17 0.24 0.25 0.14 0.05 0.04 0.00 0.02 0.31 0.23 0.09 0.05 0.05 0.01 0.04 0.02 0.00 0.00 0.00 0.00 0.00 0.00 0.01 0.01 0.00 0.00 0.00 0.00 0.00 0.00 0.00 0.02 0.00 0.00 0.00 0.00
0.13 0.24 0.16 0.22 0.05 0.04 0.02 0.02 0.03 0.05 0.12 0.13 0.15 0.23 0.11 0.05 0.01 0.02 0.02 0.05 0.16 0.32 0.09 0.04 0.01 0.00 0.00 0.00 0.00 0.00 0.00 0.00 0.00 0.00 0.00 0.01 0.00 0.00 0.00 0.00 0.00 0.00 0.00 0.00 0.00 0.00 0.00
0.20 0.21 0.05 0.03 0.01 0.01 0.01 0.02 0.03 0.04 0.04 0.05 0.08 0.13 0.06 0.03 0.01 0.03 0.01 0.01 0.05 0.17 0.14 0.09 0.08 0.01 0.00 0.00 0.00 0.00 0.00 0.00 0.00 0.00 0.00 0.01 0.00 0.00 0.00 0.00 0.00 0.01 0.02 0.00 0.00 0.04 0.01
0.14 0.03 0.01 0.00 0.01 0.01 0.01 0.01 0.02 0.03 0.04 0.03 0.03 0.04 0.01 0.00 0.01 0.04 0.02 0.01 0.10 0.02 0.01 0.03 0.03 0.03 0.01 0.00 0.00 0.00 0.00 0.00 0.00 0.00 0.00 0.00 0.00 0.00 0.00 0.01 0.02 0.01 0.01 0.00 0.00 0.02 0.00
0.03 0.00 0.01 0.00 0.01 0.00 0.00 0.01 0.02 0.03 0.03 0.01 0.00 0.01 0.02 0.01 0.01 0.04 0.09 0.03 0.02 0.01 0.05 0.01 0.00 0.00 0.00 0.00 0.00 0.00 0.00 0.00 0.00 0.00 0.00 0.00 0.00 0.00 0.00 0.01 0.03 0.01 0.00 0.01 0.01 0.07 0.07
0.00 0.00 0.01 0.00 0.00 0.00 0.01 0.01 0.01 0.01 0.01 0.00 0.00 0.01 0.01 0.01 0.03 0.07 0.07 0.12 0.01 0.01 0.03 0.04 0.01 0.00 0.00 0.00 0.00 0.00 0.00 0.00 0.00 0.00 0.00 0.00 0.01 0.00 0.00 0.00 0.01 0.00 0.00 0.00 0.01 0.06 0.13
0.00 0.01 0.01 0.00 0.00 0.00 0.01 0.01 0.00 0.00 0.00 0.00 0.00 0.00 0.01 0.00 0.00 0.02 0.00 0.01 0.00 0.02 0.08 0.06 0.01 0.01 0.00 0.00 0.00 0.00 0.00 0.00 0.00 0.00 0.00 0.00 0.00 0.00 0.00 0.00 0.00 0.00 0.00 0.00 0.01 0.05 0.21
0.00 0.01 0.01 0.00 0.00 0.00 0.00 0.00 0.00 0.00 0.00 0.00 0.00 0.00 0.00 0.01 0.02 0.00 0.00 0.00 0.01 0.07 0.07 0.02 0.00 0.00 0.00 0.00 0.00 0.00 0.00 0.00 0.00 0.00 0.00 0.00 0.00 0.00 0.00 0.00 0.00 0.00 0.02 0.05 0.10 0.15 0.14
0.00 0.01 0.01 0.00 0.00 0.00 0.00 0.00 0.00 0.00 0.00 0.00 0.00 0.00 0.00 0.00 0.02 0.00 0.00 0.01 0.10 0.10 0.04 0.00 0.00 0.00 0.01 0.01 0.00 0.00 0.00 0.00 0.00 0.00 0.01 0.00 0.02 0.00 0.00 0.00 0.00 0.01 0.03 0.16 0.16 0.14 0.16
0.00 0.00 0.01 0.00 0.00 0.00 0.00 0.00 0.00 0.00 0.00 0.00 0.00 0.00 0.00 0.00 0.00 0.00 0.00 0.05 0.08 0.05 0.01 0.00 0.00 0.00 0.00 0.00 0.00 0.00 0.00 0.00 0.00 0.00 0.04 0.01 0.00 0.00 0.00 0.00 0.00 0.00 0.04 0.14 0.21 0.15 0.07
0.00 0.00 0.00 0.00 0.00 0.00 0.00 0.00 0.00 0.00 0.00 0.00 0.00 0.00 0.00 0.00 0.00 0.00 0.00 0.06 0.03 0.00 0.00 0.00 0.01 0.00 0.00 0.00 0.00 0.00 0.00 0.01 0.01 0.00 0.00 0.00 0.02 0.01 0.00 0.00 0.00 0.00 0.00 0.03 0.05 0.05 0.14
0.00 0.00 0.00 0.00 0.00 0.00 0.00 0.00 0.00 0.00 0.00 0.00 0.00 0.00 0.00 0.00 0.00 0.00 0.01 0.03 0.00 0.00 0.00 0.01 0.01 0.00 0.00 0.00 0.00 0.01 0.01 0.00 0.00 0.04 0.02 0.09 0.10 0.03 0.00 0.00 0.00 0.00 0.00 0.00 0.00 0.00 0.03
0.00 0.00 0.00 0.00 0.00 0.00 0.00 0.00 0.00 0.00 0.00 0.00 0.00 0.00 0.00 0.00 0.00 0.00 0.00 0.00 0.00 0.00 0.00 0.00 0.00 0.00 0.00 0.00 0.00 0.01 0.02 0.02 0.02 0.05 0.05 0.04 0.02 0.00 0.00 0.00 0.00 0.00 0.00 0.00 0.00 0.00 0.00
0.00 0.00 0.00 0.00 0.00 0.00 0.01 0.01 0.00 0.00 0.00 0.00 0.00 0.00 0.00 0.00 0.00 0.00 0.00 0.00 0.00 0.00 0.00 0.00 0.00 0.00 0.00 0.00 0.00 0.00 0.00 0.01 0.00 0.00 0.00 0.00 0.00 0.00 0.00 0.00 0.00 0.00 0.00 0.00 0.00 0.00 0.00
0.00 0.00 0.00 0.00 0.00 0.00 0.01 0.02 0.01 0.00 0.00 0.00 0.00 0.00 0.00 0.00 0.00 0.00 0.00 0.00 0.00 0.00 0.00 0.00 0.00 0.00 0.00 0.00 0.00 0.00 0.00 0.00 0.00 0.00 0.00 0.00 0.00 0.00 0.00 0.00 0.00 0.00 0.00 0.00 0.00 0.00 0.00
0.00 0.00 0.00 0.00 0.00 0.00 0.00 0.01 0.00 0.00 0.00 0.00 0.00 0.00 0.00 0.00 0.00 0.00 0.00 0.00 0.00 0.00 0.00 0.00 0.00 0.00 0.00 0.00 0.00 0.00 0.00 0.00 0.00 0.00 0.00 0.00 0.00 0.00 0.00 0.00 0.00 0.00 0.00 0.00 0.00 0.00 0.00
0.00 0.00 0.00 0.00 0.01 0.01 0.00 0.00 0.00 0.00 0.00 0.00 0.00 0.00 0.00 0.00 0.00 0.00 0.00 0.00 0.00 0.00 0.00 0.00 0.00 0.00 0.00 0.00 0.00 0.00 0.00 0.00 0.00 0.00 0.00 0.00 0.00 0.00 0.00 0.00 0.00 0.00 0.00 0.00 0.00 0.00 0.00
0.00 0.00 0.00 0.00 0.00 0.00 0.00 0.00 0.00 0.00 0.00 0.00 0.00 0.00 0.00 0.00 0.00 0.00 0.00 0.00 0.00 0.00 0.00 0.00 0.00 0.00 0.00 0.00 0.00 0.00 0.00 0.00 0.00 0.00 0.00 0.00 0.00 0.00 0.00 0.00 0.00 0.00 0.00 0.00 0.00 0.00 0.00
0.00 0.00 0.00 0.00 0.01 0.00 0.00 0.00 0.00 0.00 0.00 0.00 0.00 0.00 0.00 0.00 0.00 0.00 0.00 0.00 0.00 0.00 0.00 0.00 0.00 0.00 0.00 0.00 0.00 0.00 0.00 0.00 0.00 0.00 0.00 0.00 0.00 0.00 0.00 0.00 0.00 0.00 0.00 0.00 0.00 0.00 0.00
0.00 0.00 0.00 0.00 0.00 0.00 0.00 0.00 0.00 0.00 0.00 0.00 0.00 0.00 0.00 0.00 0.00 0.00 0.00 0.00 0.00 0.00 0.00 0.00 0.00 0.00 0.00 0.00 0.00 0.00 0.00 0.00 0.00 0.00 0.00 0.00 0.00 0.00 0.00 0.00 0.00 0.00 0.00 0.00 0.00 0.00 0.00
0.00 0.00 0.00 0.00 0.00 0.00 0.00 0.00 0.00 0.00 0.00 0.00 0.00 0.00 0.00 0.00 0.00 0.00 0.00 0.00 0.00 0.00 0.00 0.00 0.00 0.00 0.00 0.00 0.00 0.00 0.00 0.00 0.00 0.00 0.00 0.00 0.00 0.00 0.00 0.00 0.00 0.00 0.00 0.00 0.00 0.00 0.00
0.00 0.00 0.00 0.00 0.00 0.00 0.00 0.00 0.00 0.00 0.00 0.00 0.00 0.00 0.00 0.00 0.00 0.00 0.00 0.00 0.00 0.00 0.00 0.00 0.00 0.00 0.00 0.00 0.00 0.00 0.00 0.00 0.00 0.00 0.00 0.00 0.00 0.00 0.00 0.00 0.00 0.00 0.00 0.00 0.00 0.00 0.00
0.00 0.00 0.00 0.00 0.00 0.00 0.00 0.00 0.00 0.00 0.00 0.00 0.00 0.00 0.00 0.00 0.00 0.00 0.00 0.00 0.00 0.00 0.00 0.00 0.00 0.00 0.00 0.00 0.00 0.00 0.00 0.00 0.00 0.00 0.00 0.00 0.00 0.00 0.00 0.00 0.00 0.00 0.00 0.00 0.00 0.00 0.00
0.00 0.00 0.00 0.00 0.00 0.00 0.00 0.00 0.00 0.00 0.00 0.00 0.00 0.00 0.00 0.00 0.00 0.00 0.00 0.00 0.00 0.00 0.00 0.00 0.00 0.00 0.00 0.00 0.00 0.00 0.00 0.00 0.00 0.00 0.00 0.00 0.00 0.00 0.00 0.00 0.00 0.00 0.00 0.00 0.00 0.00 0.00
MSLP
1020.61 1020.19 1019.76 1019.29 1018.74 1018.27 1017.76 1017.22 1016.68 1016.34 1015.95 1015.59 1015.26 1015.13 1014.94 1014.80 1014.62 1014.43 1014.24 1013.97 1013.73 1013.16 1012.92 1013.43 1013.98 1014.33 1015.31 1015.46 1014.41 1014.15 1014.35 1014.74 1015.10 1015.35 1015.80 1016.15 1016.62 1016.92 1017.15 1017.26 1017.27 1016.84 1016.22 1015.87 1015.41 1014.94 1014.56
1020.18 1019.68 1019.16 1018.68 1018.02 1017.64 1017.25 1016.84 1016.37 1015.86 1015.41 1015.06 1014.79 1014.55 1014.27 1014.19 1014.17 1013.98 1013.83 1013.45 1013.05 1012.86 1012.95 1013.51 1013.65 1013.88 1014.66 1014.67 1013.71 1013.91 1014.40 1014.94 1015.19 1015.42 1015.78 1016.27 1016.44 1016.76 1017.10 1017.34 1017.59 1016.77 1016.49 1015.75 1015.23 1014.81 1014.34
1019.87 1019.04 1018.44 1017.88 1017.39 1016.98 1016.62 1016.26 1015.93 1015.40 1014.87 1014.39 1014.27 1014.23 1013.88 1013.66 1013.69 1013.55 1013.25 1012.72 1012.27 1012.07 1012.45 1013.36 1014.13 1013.53 1014.17 1013.89 1013.75 1014.21 1014.57 1014.91 1015.11 1015.30 1015.80 1016.10 1016.42 1016.90 1017.19 1017.47 1017.25 1016.85 1016.40 1015.33 1014.71 1014.20 1013.82
1019.20 1018.62 1017.81 1017.24 1016.69 1016.46 1016.22 1015.85 1015.48 1014.84 1014.24 1014.09 1013.70 1013.63 1013.48 1013.19 1013.39 1013.21 1012.80 1011.34 1011.01 1011.88 1012.51 1013.31 1013.76 1013.80 1013.91 1014.08 1013.74 1014.32 1014.61 1014.89 1015.06 1015.35 1015.94 1016.20 1016.55 1016.95 1017.30 1017.61 1017.32 1016.93 1016.49 1015.58 1014.15 1013.81 1013.20
1018.89 1018.00 1017.27 1016.32 1016.48 1016.27 1015.94 1015.42 1014.97 1014.31 1013.98 1013.81 1013.35 1013.12 1013.22 1013.10 1013.13 1013.02 1012.72 1011.84 1011.64 1012.51 1012.96 1013.31 1013.96 1013.97 1013.98 1013.74 1013.91 1014.28 1014.56 1014.77 1015.08 1015.62 1016.06 1016.32 1016.76 1017.05 1017.62 1017.94 1017.77 1017.02 1016.51 1015.66 1014.24 1013.41 1012.94
1018.51 1017.88 1017.52 1016.84 1016.43 1015.83 1015.27 1014.77 1014.24 1013.84 1013.56 1013.38 1013.34 1013.14 1012.99 1013.01 1012.90 1012.85 1012.77 1012.59 1012.50 1012.92 1013.12 1013.65 1013.65 1014.27 1014.25 1013.71 1013.75 1014.06 1014.49 1014.67 1015.06 1015.81 1016.51 1016.80 1016.94 1017.19 1017.34 1017.79 1017.77 1017.02 1016.51 1015.59 1014.85 1013.38 1013.24
1018.76 1017.98 1017.29 1016.35 1015.76 1015.02 1014.31 1013.82 1013.35 1013.18 1013.14 1013.06 1012.81 1012.53 1012.58 1012.55 1012.55 1012.52 1012.94 1013.13 1013.43 1013.93 1013.49 1013.41 1013.46 1013.11 1013.31 1013.48 1013.52 1013.98 1014.48 1014.65 1015.15 1015.84 1016.42 1016.77 1017.15 1017.00 1016.84 1017.11 1016.69 1016.47 1016.06 1015.25 1014.17 1013.26 1012.88
1018.62 1017.81 1017.06 1016.20 1015.33 1014.73 1013.88 1013.09 1012.63 1012.41 1012.46 1012.59 1012.40 1012.26 1012.14 1012.35 1012.45 1011.74 1012.59 1013.22 1013.51 1013.94 1013.67 1013.67 1013.66 1013.46 1013.52 1013.61 1014.03 1014.36 1014.52 1015.20 1015.71 1016.01 1016.12 1017.01 1016.48 1016.04 1016.16 1016.25 1016.19 1015.78 1015.40 1014.74 1013.49 1012.67 1012.74
1018.51 1017.86 1017.05 1016.20 1015.37 1014.74 1013.96 1012.58 1011.93 1011.79 1011.85 1012.07 1012.33 1012.30 1012.28 1012.50 1012.35 1012.73 1013.05 1013.60 1013.74 1013.67 1013.76 1013.99 1014.09 1013.81 1013.86 1013.90 1013.80 1014.25 1014.67 1015.06 1015.32 1015.75 1015.78 1016.09 1015.21 1014.96 1015.48 1015.30 1015.15 1014.78 1014.42 1013.76 1013.19 1012.40 1012.05
1018.45 1017.81 1017.12 1016.38 1015.55 1014.94 1014.29 1013.19 1012.46 1012.09 1011.53 1011.90 1012.02 1012.16 1012.51 1012.39 1012.63 1013.01 1013.30 1013.56 1013.75 1013.74 1013.85 1014.46 1013.95 1013.84 1014.16 1014.08 1014.10 1014.17 1014.58 1015.03 1014.96 1015.10 1015.25 1015.09 1014.34 1014.36 1014.40 1014.12 1014.11 1013.59 1013.01 1012.77 1012.68 1012.53 1012.05
1018.43 1017.76 1017.12 1016.46 1015.84 1015.37 1014.70 1013.58 1013.03 1012.66 1012.43 1012.22 1012.29 1012.42 1012.65 1012.63 1013.18 1013.14 1013.60 1013.51 1013.65 1013.80 1014.10 1014.95 1014.43 1014.19 1014.13 1014.39 1014.34 1014.61 1014.46 1014.76 1014.91 1014.87 1014.96 1014.58 1013.99 1013.92 1013.81 1013.29 1013.17 1012.81 1012.44 1012.41 1012.23 1011.83 1011.71
1018.58 1017.95 1017.40 1016.66 1016.03 1015.58 1015.07 1014.43 1013.60 1013.22 1012.83 1012.54 1012.51 1012.62 1012.82 1013.23 1013.48 1013.68 1013.61 1013.73 1014.04 1014.36 1014.46 1014.56 1014.62 1014.19 1014.45 1014.44 1014.39 1014.69 1014.76 1014.95 1014.82 1014.84 1014.43 1014.08 1013.51 1013.48 1013.16 1012.73 1012.73 1012.46 1012.27 1011.49 1011.28 1011.29 1011.06
1018.78 1018.15 1017.62 1017.03 1016.34 1015.99 1015.41 1015.02 1014.51 1014.19 1013.97 1013.72 1013.38 1013.40 1013.23 1012.92 1013.81 1013.90 1013.83 1014.04 1014.30 1013.92 1014.60 1014.81 1014.35 1014.46 1014.42 1014.41 1014.40 1014.58 1014.80 1014.87 1014.81 1014.82 1014.19 1013.48 1013.11 1012.87 1012.88 1012.91 1012.44 1012.50 1012.21 1011.70 1010.94 1010.48 1010.51
1018.99 1018.43 1017.89 1017.34 1016.78 1016.47 1015.89 1015.51 1015.23 1015.07 1014.67 1014.38 1014.13 1013.87 1013.81 1013.72 1013.85 1013.83 1014.02 1014.42 1014.08 1014.36 1014.04 1014.14 1014.12 1014.65 1014.48 1014.21 1014.24 1014.11 1014.29 1014.41 1014.33 1014.43 1014.33 1013.74 1013.08 1012.95 1013.10 1012.95 1012.59 1012.43 1012.22 1011.83 1011.07 1010.28 1010.08
1019.23 1018.71 1018.18 1017.64 1017.23 1016.90 1016.53 1016.12 1015.88 1015.52 1015.21 1014.98 1014.76 1014.73 1014.71 1014.68 1014.33 1014.33 1014.60 1014.75 1015.15 1014.76 1014.43 1013.85 1013.89 1013.95 1013.93 1013.73 1013.67 1013.87 1013.86 1013.75 1013.59 1013.67 1014.23 1013.68 1013.29 1012.91 1012.79 1012.67 1012.75 1011.93 1011.61 1011.23 1010.87 1010.24 1010.39
1019.34 1018.78 1018.42 1017.93 1017.60 1017.34 1017.13 1016.71 1016.54 1016.12 1015.74 1015.43 1015.50 1015.52 1015.63 1015.00 1014.59 1014.73 1015.04 1015.38 1015.46 1014.87 1014.31 1014.10 1013.43 1013.07 1013.40 1013.48 1013.52 1013.71 1013.48 1013.35 1013.33 1013.50 1013.51 1013.76 1013.74 1013.03 1012.71 1012.35 1011.80 1011.82 1011.30 1011.02 1010.69 1010.27 1010.44
1019.57 1019.03 1018.59 1018.29 1017.91 1017.68 1017.42 1017.20 1016.88 1016.62 1016.09 1015.66 1015.87 1016.35 1016.28 1015.47 1015.31 1015.50 1016.11 1016.22 1015.67 1014.65 1014.13 1013.73 1012.89 1012.68 1012.91 1013.17 1013.67 1013.66 1013.57 1013.51 1013.31 1013.56 1013.77 1013.86 1014.03 1013.05 1012.61 1011.87 1011.20 1011.38 1010.55 1010.06 1009.77 1010.03 1010.62
1019.54 1019.15 1018.87 1018.53 1018.19 1017.88 1017.63 1017.41 1017.14 1016.84 1016.41 1016.01 1016.57 1017.15 1016.51 1016.00 1016.23 1016.75 1016.99 1016.70 1015.69 1014.53 1013.54 1012.99 1012.50 1012.32 1012.56 1012.55 1012.86 1013.12 1013.28 1013.30 1013.35 1013.37 1013.52 1013.51 1013.48 1012.85 1011.86 1010.91 1010.62 1010.46 1009.92 1009.36 1009.75 1010.54 1011.01
1019.61 1019.11 1018.74 1018.49 1018.22 1017.87 1017.55 1017.30 1017.30 1017.11 1016.99 1017.31 1017.64 1017.84 1016.89 1016.70 1017.43 1017.56 1017.39 1016.52 1015.57 1014.37 1013.59 1013.09 1012.65 1012.25 1012.08 1012.30 1012.66 1012.71 1013.03 1012.77 1012.75 1012.83 1012.77 1012.91 1013.15 1012.98 1011.90 1011.37 1010.83 1010.47 1009.67 1009.16 1009.41 1010.23 1011.75
1019.58 1018.99 1018.60 1018.42 1018.00 1017.72 1017.49 1017.30 1017.19 1017.21 1017.20 1017.47 1018.04 1018.23 1017.85 1017.59 1017.58 1017.48 1017.26 1016.43 1015.49 1014.55 1013.89 1013.33 1012.91 1012.30 1012.19 1012.26 1012.22 1012.66 1012.61 1012.44 1012.34 1012.32 1012.43 1012.67 1013.25 1013.54 1013.41 1012.93 1012.33 1011.46 1010.46 1009.54 1009.53 1011.24 1012.56
1019.46 1018.87 1018.44 1018.03 1017.81 1017.40 1017.16 1017.15 1017.22 1017.35 1017.40 1017.76 1017.84 1018.42 1017.95 1017.93 1017.80 1017.49 1017.11 1016.47 1015.47 1014.69 1013.91 1013.50 1013.08 1012.88 1012.65 1013.10 1012.95 1012.83 1012.47 1012.28 1012.16 1012.07 1012.14 1012.72 1013.81 1013.86 1013.39 1012.88 1012.38 1012.12 1011.47 1010.77 1010.54 1011.52 1011.80
1019.29 1018.80 1018.45 1017.93 1017.48 1017.12 1016.71 1016.84 1017.09 1017.50 1017.68 1017.92 1017.99 1018.03 1017.62 1017.55 1017.65 1017.36 1016.95 1016.24 1015.52 1014.90 1014.44 1014.26 1014.08 1013.75 1013.39 1013.83 1014.03 1013.56 1012.85 1012.69 1012.87 1012.50 1012.49 1013.03 1014.02 1014.26 1014.25 1013.58 1013.10 1012.69 1012.02 1011.65 1011.66 1011.97 1012.46
1019.15 1018.77 1018.31 1017.80 1016.92 1016.17 1016.13 1016.24 1016.83 1017.51 1017.93 1018.32 1017.84 1017.39 1017.63 1018.02 1017.77 1017.40 1016.63 1016.08 1015.66 1015.11 1014.85 1014.66 1014.52 1014.20 1014.15 1014.22 1013.93 1013.64 1013.07 1012.92 1012.90 1013.03 1013.18 1013.40 1014.15 1014.87 1014.99 1014.16 1013.68 1013.67 1013.10 1012.76 1012.48 1012.31 1012.49
1018.96 1018.48 1018.13 1017.61 1016.71 1016.17 1015.60 1015.71 1016.78 1017.58 1018.17 1018.66 1018.10 1017.77 1018.10 1018.61 1018.09 1017.03 1016.35 1015.86 1015.60 1015.29 1015.11 1014.96 1014.64 1014.51 1014.68 1014.20 1013.66 1013.32 1013.20 1013.17 1013.06 1013.22 1013.22 1013.74 1014.29 1014.95 1015.40 1014.86 1014.51 1013.56 1012.99 1012.83 1012.62 1012.58 1012.55
1018.70 1018.60 1018.06 1017.13 1016.74 1016.20 1015.83 1016.16 1016.66 1017.75 1018.30 1018.86 1018.39 1018.37 1018.46 1018.69 1018.11 1017.34 1016.57 1016.25 1015.93 1015.63 1015.38 1015.14 1014.98 1014.90 1014.77 1014.67 1014.53 1014.23 1014.05 1013.90 1013.70 1013.49 1013.40 1013.61 1014.28 1015.14 1015.50 1015.43 1014.63 1013.74 1013.08 1012.68 1012.45 1012.94 1012.98
1018.68 1018.61 1018.14 1017.33 1016.91 1017.05 1016.42 1016.81 1017.26 1017.61 1017.94 1018.52 1018.76 1018.72 1018.79 1018.93 1018.49 1017.94 1017.30 1016.64 1016.45 1016.27 1016.03 1015.54 1015.09 1014.83 1014.88 1015.13 1015.14 1015.34 1015.18 1014.63 1014.37 1013.89 1013.59 1013.79 1014.21 1015.31 1015.34 1015.39 1014.49 1013.09 1012.52 1012.30 1012.36 1012.83 1012.70
1018.53 1018.31 1017.81 1017.54 1017.39 1017.13 1016.72 1016.49 1017.17 1017.53 1017.75 1018.33 1018.75 1018.85 1019.18 1019.24 1018.61 1018.32 1018.09 1017.74 1017.09 1016.82 1016.67 1016.15 1015.67 1015.36 1015.32 1015.90 1016.21 1016.22 1015.95 1015.35 1015.05 1014.57 1014.21 1014.46 1014.79 1015.41 1015.53 1015.19 1013.90 1012.71 1012.47 1012.51 1012.95 1012.95 1012.44
1018.39 1018.14 1017.87 1017.60 1017.13 1017.14 1017.03 1017.14 1016.92 1017.28 1017.78 1018.00 1018.63 1018.54 1019.22 1019.63 1019.16 1018.76 1018.60 1018.39 1017.81 1017.78 1017.77 1016.90 1016.51 1016.22 1016.28 1016.70 1016.92 1016.75 1016.50 1015.92 1015.61 1014.86 1014.41 1014.73 1015.07 1015.26 1015.11 1014.75 1013.70 1012.38 1012.73 1012.78 1012.29 1012.24 1012.43
1017.84 1018.03 1017.68 1017.45 1017.23 1016.64 1017.03 1017.36 1017.51 1017.39 1017.28 1017.90 1018.62 1018.31 1018.41 1019.29 1019.76 1019.36 1018.99 1018.89 1018.91 1018.73 1018.55 1017.60 1017.48 1017.03 1016.88 1017.25 1017.34 1017.11 1016.83 1016.46 1016.12 1015.73 1014.55 1014.48 1014.09 1014.17 1014.02 1013.14 1012.24 1011.99 1011.81 1011.76 1011.90 1012.28 1012.74
Thickness
5551 5542 5533 5524 5517 5511 5505 5500 5497 5492 5489 5486 5484 5484 5486 5487 5490 5494 5498 5504 5510 5520 5524 5525 5524 5525 5522 5523 5535 5538 5541 5540 5540 5541 5539 5537 5533 5536 5538 5537 5537 5541 5548 5551 5549 5552 5554
5541 5530 5521 5513 5505 5496 5487 5480 5475 5473 5470 5469 5467 5467 5469 5471 5474 5478 5483 5491 5500 5507 5511 5513 5515 5517 5516 5517 5533 5531 5531 5530 5530 5531 5531 5528 5528 5530 5530 5524 5522 5533 5535 5539 5539 5539 5543
5528 5519 5510 5500 5490 5480 5471 5463 5457 5456 5454 5454 5452 5451 5455 5456 5460 5464 5470 5481 5492 5500 5502 5500 5498 5508 5509 5516 5523 5519 5521 5520 5522 5524 5521 5522 5521 5519 5517 5513 5523 5528 5520 5530 5533 5535 5534
5516 5504 5495 5483 5474 5465 5456 5450 5443 5440 5438 5435 5438 5438 5440 5445 5445 5452 5461 5480 5489 5490 5491 5492 5492 5496 5500 5507 5511 5508 5512 5512 5515 5516 5513 5513 5512 5510 5508 5507 5508 5511 5514 5503 5531 5530 5531
5500 5491 5481 5478 5462 5452 5442 5436 5429 5424 5416 5411 5416 5421 5424 5430 5433 5440 5452 5468 5472 5473 5478 5484 5483 5486 5493 5500 5502 5502 5504 5506 5507 5506 5504 5504 5501 5498 5495 5489 5486 5499 5483 5493 5513 5525 5525
5491 5479 5469 5461 5450 5441 5434 5427 5419 5407 5398 5394 5400 5408 5416 5420 5425 5432 5442 5454 5456 5461 5468 5471 5479 5478 5484 5494 5498 5499 5500 5502 5502 5497 5491 5490 5492 5489 5490 5478 5461 5494 5487 5504 5502 5517 5516
5478 5467 5458 5450 5441 5437 5431 5425 5419 5406 5397 5395 5401 5409 5413 5417 5421 5429 5435 5441 5449 5448 5460 5471 5474 5487 5489 5491 5495 5495 5493 5496 5495 5491 5485 5486 5478 5476 5478 5477 5483 5488 5489 5491 5503 5515 5513
5471 5460 5449 5442 5435 5428 5426 5425 5421 5412 5403 5400 5404 5409 5413 5415 5420 5430 5431 5434 5443 5444 5454 5461 5468 5479 5484 5487 5484 5486 5489 5484 5479 5479 5485 5472 5474 5483 5485 5484 5489 5494 5492 5491 5508 5518 5505
5471 5454 5443 5434 5428 5421 5419 5424 5424 5419 5413 5407 5406 5409 5411 5413 5419 5419 5422 5427 5434 5444 5454 5458 5462 5471 5476 5482 5487 5482 5483 5480 5481 5472 5475 5464 5486 5494 5488 5490 5491 5494 5496 5497 5506 5514 5511
5474 5459 5442 5428 5421 5414 5409 5412 5416 5418 5419 5414 5413 5414 5412 5415 5418 5416 5419 5426 5433 5442 5451 5451 5464 5469 5472 5476 5477 5481 5478 5476 5478 5477 5477 5477 5494 5495 5499 5503 5502 5498 5514 5518 5513 5507 5512
5479 5468 5451 5434 5417 5406 5401 5406 5411 5414 5415 5416 5415 5413 5413 5415 5414 5421 5423 5430 5436 5446 5457 5450 5458 5467 5471 5470 5472 5470 5475 5473 5470 5476 5482 5484 5497 5493 5493 5503 5509 5511 5515 5513 5514 5518 5505
5485 5474 5458 5445 5428 5409 5399 5403 5408 5410 5415 5418 5419 5418 5414 5412 5417 5420 5426 5433 5439 5447 5453 5454 5456 5463 5464 5468 5471 5468 5468 5470 5474 5475 5485 5487 5502 5501 5504 5512 5512 5516 5514 5521 5523 5520 5526
5490 5481 5466 5454 5440 5424 5408 5402 5402 5403 5409 5415 5419 5418 5418 5423 5422 5426 5432 5437 5441 5457 5455 5453 5463 5465 5468 5466 5472 5467 5464 5463 5462 5459 5486 5501 5503 5510 5508 5500 5513 5510 5514 5511 5529 5534 5536
5495 5487 5475 5463 5451 5437 5426 5413 5406 5402 5412 5418 5421 5423 5425 5428 5432 5439 5442 5444 5459 5460 5459 5470 5473 5462 5467 5476 5478 5481 5477 5471 5478 5483 5475 5470 5491 5508 5505 5508 5511 5513 5515 5520 5529 5542 5543
5500 5493 5484 5472 5462 5449 5438 5428 5419 5416 5418 5422 5426 5429 5432 5434 5439 5441 5441 5444 5449 5456 5463 5478 5477 5474 5479 5485 5485 5483 5485 5489 5499 5500 5488 5500 5500 5510 5511 5514 5512 5523 5523 5521 5526 5534 5535
5509 5502 5492 5482 5472 5460 5449 5441 5435 5431 5431 5433 5433 5432 5433 5440 5445 5446 5441 5456 5451 5464 5473 5473 5481 5490 5479 5489 5491 5486 5497 5501 5503 5502 5504 5503 5496 5509 5512 5518 5521 5515 5525 5526 5525 5535 5542
5516 5509 5503 5492 5481 5473 5462 5454 5448 5446 5448 5449 5445 5438 5444 5451 5452 5446 5451 5450 5454 5472 5480 5482 5489 5496 5494 5494 5490 5485 5494 5500 5505 5500 5500 5494 5491 5516 5517 5525 5532 5527 5537 5545 5548 5543 5546
5526 5520 5512 5503 5493 5484 5476 5467 5462 5459 5458 5462 5452 5443 5456 5459 5447 5451 5450 5451 5467 5478 5494 5497 5503 5505 5504 5508 5505 5498 5502 5503 5503 5505 5502 5507 5511 5509 5534 5545 5545 5542 5548 5557 5532 5549 5533
5534 5529 5524 5516 5507 5499 5491 5483 5474 5468 5465 5459 5452 5452 5458 5458 5441 5443 5456 5468 5475 5493 5500 5502 5505 5513 5519 5514 5510 5514 5510 5514 5514 5516 5519 5522 5511 5505 5528 5537 5543 5546 5558 5566 5565 5547 5534
5541 5538 5535 5528 5522 5514 5506 5499 5490 5482 5474 5466 5458 5443 5453 5457 5460 5465 5468 5471 5491 5496 5503 5509 5513 5522 5524 5522 5523 5519 5520 5522 5524 5528 5528 5529 5520 5516 5497 5524 5532 5541 5555 5564 5563 5525 5538
5546 5546 5545 5542 5534 5528 5523 5515 5506 5496 5489 5479 5473 5464 5468 5461 5472 5476 5478 5479 5501 5502 5513 5517 5523 5523 5525 5518 5524 5525 5530 5530 5533 5538 5540 5533 5510 5495 5537 5544 5545 5542 5549 5557 5559 5553 5552
5552 5551 5548 5549 5546 5540 5536 5530 5522 5511 5503 5494 5490 5481 5486 5491 5488 5489 5488 5502 5508 5513 5515 5514 5517 5525 5523 5519 5520 5522 5529 5528 5527 5535 5541 5536 5510 5531 5533 5539 5539 5540 5547 5553 5557 5556 5550
5556 5553 5553 5554 5557 5559 5554 5546 5536 5525 5516 5506 5506 5506 5497 5493 5488 5493 5503 5513 5515 5518 5522 5521 5521 5528 5524 5524 5522 5525 5537 5536 5538 5538 5534 5539 5519 5510 5511 5538 5538 5529 5538 5542 5550 5550 5553
5560 5558 5557 5558 5564 5563 5564 5557 5545 5534 5526 5518 5516 5517 5510 5503 5500 5512 5524 5524 5522 5523 5524 5525 5524 5531 5531 5528 5534 5541 5545 5542 5541 5539 5539 5538 5535 5513 5502 5520 5509 5537 5545 5545 5546 5550 5550
5563 5558 5558 5566 5566 5568 5566 5559 5553 5541 5533 5525 5525 5524 5519 5508 5516 5521 5532 5530 5529 5528 5528 5530 5529 5529 5527 5532 5534 5533 5530 5540 5541 5543 5544 5541 5534 5529 5511 5494 5539 5541 5544 5546 5550 5546 5550
5558 5558 5557 5563 5565 5559 5564 5559 5552 5545 5541 5536 5530 5528 5526 5520 5515 5523 5531 5536 5528 5527 5528 5535 5535 5533 5533 5530 5530 5535 5518 5537 5534 5535 5547 5545 5539 5522 5511 5517 5535 5549 5552 5556 5555 5537 5551
5559 5557 5562 5560 5557 5560 5562 5563 5555 5551 5547 5540 5537 5534 5528 5526 5525 5526 5528 5528 5534 5535 5529 5538 5542 5542 5540 5527 5526 5515 5524 5540 5531 5537 5543 5534 5534 5524 5523 5505 5536 5554 5553 5555 5545 5549 5555
5558 5557 5555 5557 5559 5558 5561 5557 5557 5551 5545 5545 5539 5539 5533 5522 5525 5530 5528 5529 5531 5531 5533 5539 5540 5540 5535 5533 5529 5527 5528 5533 5535 5542 5552 5538 5525 5524 5525 5526 5528 5555 5554 5547 5553 5557 5558
5561 5554 5555 5555 5555 5563 5559 5552 5547 5548 5549 5544 5539 5543 5541 5532 5526 5527 5530 5529 5526 5524 5522 5533 5538 5540 5538 5520 5525 5526 5534 5526 5530 5529 5553 5541 5547 5545 5543 5547 5562 5558 5568 5565 5559 5557 5556